contact:dominique.lefevre@mio.osupytheas.fr, maurice.libes@osupytheas.fr, didier.mallarino@osupytheas.fr
Project:EMSO http://www.emso-fr.org/EMSO-France
Depth: 2436.0 m
Title:EMSO Ligure Ouest : Data MII capteur MICROCAT
DateTime_Computer,Latitude,Longitude,Temperature,Conductivity,Pressure,DateTime_Instrument
DateTime_Computer,Latitude,Longitude,degC,S m-1,dbar,DateTime_Instrument
2022-07-27T00:01:49Z,42.805,6.029,13.3006,4.60052,2470.553,2022-7-27T02:03:36Z
2022-07-27T00:04:52Z,42.805,6.029,13.3008,4.60049,2470.563,2022-7-27T02:06:39Z
2022-07-27T00:07:55Z,42.805,6.029,13.3003,4.60053,2470.6,2022-7-27T02:09:43Z
2022-07-27T00:10:58Z,42.805,6.029,13.3009,4.60046,2470.591,2022-7-27T02:12:46Z
2022-07-27T00:14:01Z,42.805,6.029,13.3003,4.60052,2470.563,2022-7-27T02:15:49Z
2022-07-27T00:17:04Z,42.805,6.029,13.3007,4.60061,2470.563,2022-7-27T02:18:52Z
2022-07-27T00:20:08Z,42.805,6.029,13.3013,4.60052,2470.6,2022-7-27T02:21:55Z
2022-07-27T00:23:11Z,42.805,6.029,13.3007,4.60049,2470.577,2022-7-27T02:24:58Z
2022-07-27T00:26:14Z,42.805,6.029,13.3011,4.60065,2470.591,2022-7-27T02:28:01Z
2022-07-27T00:29:17Z,42.805,6.029,13.3016,4.60051,2470.567,2022-7-27T02:31:04Z
2022-07-27T00:32:20Z,42.805,6.029,13.3008,4.60055,2470.553,2022-7-27T02:34:07Z
2022-07-27T00:35:23Z,42.805,6.029,13.3014,4.60055,2470.6,2022-7-27T02:37:11Z
2022-07-27T00:38:26Z,42.805,6.029,13.3011,4.60058,2470.577,2022-7-27T02:40:14Z
2022-07-27T00:41:29Z,42.805,6.029,13.3007,4.60052,2470.577,2022-7-27T02:43:17Z
2022-07-27T00:44:33Z,42.805,6.029,13.3013,4.60052,2470.637,2022-7-27T02:46:20Z
2022-07-27T00:47:36Z,42.805,6.029,13.3011,4.60048,2470.6,2022-7-27T02:49:23Z
2022-07-27T00:50:39Z,42.805,6.029,13.3015,4.60051,2470.577,2022-7-27T02:52:26Z
2022-07-27T00:53:42Z,42.805,6.029,13.3015,4.60051,2470.6,2022-7-27T02:55:29Z
2022-07-27T00:56:45Z,42.805,6.029,13.3019,4.60050,2470.567,2022-7-27T02:58:32Z
2022-07-27T00:59:48Z,42.805,6.029,13.3017,4.60056,2470.591,2022-7-27T03:01:36Z
2022-07-27T01:02:51Z,42.805,6.029,13.3009,4.60084,2470.6,2022-7-27T03:04:39Z
2022-07-27T01:05:54Z,42.805,6.029,13.3009,4.60064,2470.577,2022-7-27T03:07:42Z
2022-07-27T01:08:58Z,42.805,6.029,13.3009,4.60087,2470.553,2022-7-27T03:10:45Z
2022-07-27T01:12:01Z,42.805,6.029,13.3006,4.60059,2470.553,2022-7-27T03:13:48Z
2022-07-27T01:15:04Z,42.805,6.029,13.3009,4.60055,2470.577,2022-7-27T03:16:51Z
2022-07-27T01:18:07Z,42.805,6.029,13.3006,4.60056,2470.577,2022-7-27T03:19:54Z
2022-07-27T01:21:10Z,42.805,6.029,13.3007,4.60052,2470.563,2022-7-27T03:22:57Z
2022-07-27T01:24:13Z,42.805,6.029,13.3015,4.60052,2470.553,2022-7-27T03:26:01Z
2022-07-27T01:27:16Z,42.805,6.029,13.3010,4.60081,2470.591,2022-7-27T03:29:04Z
2022-07-27T01:30:19Z,42.805,6.029,13.3008,4.60076,2470.577,2022-7-27T03:32:07Z
2022-07-27T01:33:22Z,42.805,6.029,13.3007,4.60072,2470.553,2022-7-27T03:35:10Z
2022-07-27T01:36:26Z,42.805,6.029,13.3006,4.60062,2470.53,2022-7-27T03:38:13Z
2022-07-27T01:39:29Z,42.805,6.029,13.3005,4.60059,2470.567,2022-7-27T03:41:16Z
2022-07-27T01:42:32Z,42.805,6.029,13.3005,4.60054,2470.553,2022-7-27T03:44:19Z
2022-07-27T01:45:35Z,42.805,6.029,13.3005,4.60077,2470.6,2022-7-27T03:47:22Z
2022-07-27T01:48:38Z,42.805,6.029,13.3007,4.60063,2470.553,2022-7-27T03:50:25Z
2022-07-27T01:51:41Z,42.805,6.029,13.3009,4.60079,2470.577,2022-7-27T03:53:29Z
2022-07-27T01:54:44Z,42.805,6.029,13.3007,4.60061,2470.614,2022-7-27T03:56:32Z
2022-07-27T01:57:47Z,42.805,6.029,13.3006,4.60078,2470.577,2022-7-27T03:59:35Z
2022-07-27T02:00:51Z,42.805,6.029,13.3004,4.60060,2470.577,2022-7-27T04:02:38Z
2022-07-27T02:03:54Z,42.805,6.029,13.3009,4.60055,2470.553,2022-7-27T04:05:41Z
2022-07-27T02:06:57Z,42.805,6.029,13.3004,4.60067,2470.577,2022-7-27T04:08:44Z
2022-07-27T02:10:00Z,42.805,6.029,13.3006,4.60072,2470.567,2022-7-27T04:11:47Z
2022-07-27T02:13:03Z,42.805,6.029,13.3011,4.60081,2470.6,2022-7-27T04:14:50Z
2022-07-27T02:16:06Z,42.805,6.029,13.3011,4.60086,2470.591,2022-7-27T04:17:54Z
2022-07-27T02:19:09Z,42.805,6.029,13.3018,4.60078,2470.577,2022-7-27T04:20:57Z
2022-07-27T02:22:12Z,42.805,6.029,13.3026,4.60079,2470.614,2022-7-27T04:24:00Z
2022-07-27T02:25:15Z,42.805,6.029,13.3026,4.60090,2470.591,2022-7-27T04:27:03Z
2022-07-27T02:28:19Z,42.805,6.029,13.3031,4.60107,2470.577,2022-7-27T04:30:06Z
2022-07-27T02:31:22Z,42.805,6.029,13.3041,4.60115,2470.6,2022-7-27T04:33:09Z
2022-07-27T02:34:25Z,42.805,6.029,13.3055,4.60137,2470.591,2022-7-27T04:36:12Z
2022-07-27T02:37:28Z,42.805,6.029,13.3101,4.60132,2470.591,2022-7-27T04:39:15Z
2022-07-27T02:40:31Z,42.805,6.029,13.3037,4.60135,2470.577,2022-7-27T04:42:19Z
2022-07-27T02:43:34Z,42.805,6.029,13.3023,4.60141,2470.577,2022-7-27T04:45:22Z
2022-07-27T02:46:37Z,42.805,6.029,13.3010,4.60151,2470.563,2022-7-27T04:48:25Z
2022-07-27T02:49:40Z,42.805,6.029,13.3009,4.60208,2470.577,2022-7-27T04:51:28Z
2022-07-27T02:52:44Z,42.805,6.029,13.3015,4.60148,2470.624,2022-7-27T04:54:31Z
2022-07-27T02:55:47Z,42.805,6.029,13.3009,4.60153,2470.577,2022-7-27T04:57:34Z
2022-07-27T02:58:50Z,42.805,6.029,13.3012,4.60101,2470.614,2022-7-27T05:00:37Z
2022-07-27T03:01:53Z,42.805,6.029,13.3067,4.60142,2470.577,2022-7-27T05:03:40Z
2022-07-27T03:04:56Z,42.805,6.029,13.3067,4.60113,2470.577,2022-7-27T05:06:43Z
2022-07-27T03:07:59Z,42.805,6.029,13.3074,4.60115,2470.6,2022-7-27T05:09:47Z
2022-07-27T03:11:02Z,42.805,6.029,13.3041,4.60102,2470.553,2022-7-27T05:12:50Z
2022-07-27T03:14:05Z,42.805,6.029,13.3039,4.60110,2470.614,2022-7-27T05:15:53Z
2022-07-27T03:17:09Z,42.805,6.029,13.3031,4.60104,2470.567,2022-7-27T05:18:56Z
2022-07-27T03:20:12Z,42.805,6.029,13.3051,4.60115,2470.614,2022-7-27T05:21:59Z
2022-07-27T03:23:15Z,42.805,6.029,13.3072,4.60119,2470.6,2022-7-27T05:25:02Z
2022-07-27T03:26:18Z,42.805,6.029,13.3078,4.60096,2470.591,2022-7-27T05:28:05Z
2022-07-27T03:29:21Z,42.805,6.029,13.3094,4.60110,2470.614,2022-7-27T05:31:08Z
2022-07-27T03:32:24Z,42.805,6.029,13.3104,4.60127,2470.614,2022-7-27T05:34:12Z
2022-07-27T03:35:27Z,42.805,6.029,13.3112,4.60130,2470.6,2022-7-27T05:37:15Z
2022-07-27T03:38:30Z,42.805,6.029,13.3113,4.60111,2470.614,2022-7-27T05:40:18Z
2022-07-27T03:41:34Z,42.805,6.029,13.3109,4.60102,2470.591,2022-7-27T05:43:21Z
2022-07-27T03:44:37Z,42.805,6.029,13.3099,4.60106,2470.591,2022-7-27T05:46:24Z
2022-07-27T03:47:40Z,42.805,6.029,13.3085,4.60125,2470.6,2022-7-27T05:49:27Z
2022-07-27T03:50:43Z,42.805,6.029,13.3083,4.60123,2470.591,2022-7-27T05:52:30Z
2022-07-27T03:53:46Z,42.805,6.029,13.3095,4.60107,2470.6,2022-7-27T05:55:33Z
2022-07-27T03:56:49Z,42.805,6.029,13.3083,4.60111,2470.577,2022-7-27T05:58:37Z
2022-07-27T03:59:52Z,42.805,6.029,13.3088,4.60117,2470.591,2022-7-27T06:01:40Z
2022-07-27T04:02:55Z,42.805,6.029,13.3079,4.60106,2470.6,2022-7-27T06:04:43Z
2022-07-27T04:05:58Z,42.805,6.029,13.3086,4.60087,2470.6,2022-7-27T06:07:46Z
2022-07-27T04:09:02Z,42.805,6.029,13.3085,4.60112,2470.637,2022-7-27T06:10:49Z
2022-07-27T04:12:05Z,42.805,6.029,13.3083,4.60109,2470.6,2022-7-27T06:13:52Z
2022-07-27T04:15:08Z,42.805,6.029,13.3093,4.60094,2470.661,2022-7-27T06:16:55Z
2022-07-27T04:18:11Z,42.805,6.029,13.3091,4.60115,2470.624,2022-7-27T06:19:58Z
2022-07-27T04:21:14Z,42.805,6.029,13.3096,4.60137,2470.637,2022-7-27T06:23:02Z
2022-07-27T04:24:17Z,42.805,6.029,13.3091,4.60112,2470.6,2022-7-27T06:26:05Z
2022-07-27T04:27:20Z,42.805,6.029,13.3091,4.60104,2470.637,2022-7-27T06:29:08Z
2022-07-27T04:30:23Z,42.805,6.029,13.3104,4.60084,2470.624,2022-7-27T06:32:11Z
2022-07-27T04:33:27Z,42.805,6.029,13.3105,4.60093,2470.6,2022-7-27T06:35:14Z
2022-07-27T04:36:30Z,42.805,6.029,13.3094,4.60085,2470.624,2022-7-27T06:38:17Z
2022-07-27T04:39:33Z,42.805,6.029,13.3095,4.60091,2470.624,2022-7-27T06:41:20Z
2022-07-27T04:42:36Z,42.805,6.029,13.3089,4.60094,2470.661,2022-7-27T06:44:23Z
2022-07-27T04:45:39Z,42.805,6.029,13.3094,4.60081,2470.624,2022-7-27T06:47:26Z
2022-07-27T04:48:42Z,42.805,6.029,13.3092,4.60100,2470.591,2022-7-27T06:50:30Z
2022-07-27T04:51:45Z,42.805,6.029,13.3098,4.60084,2470.661,2022-7-27T06:53:33Z
2022-07-27T04:54:48Z,42.805,6.029,13.3095,4.60088,2470.624,2022-7-27T06:56:36Z
2022-07-27T04:57:52Z,42.805,6.029,13.3092,4.60084,2470.661,2022-7-27T06:59:39Z
2022-07-27T05:00:55Z,42.805,6.029,13.3081,4.60079,2470.661,2022-7-27T07:02:42Z
2022-07-27T05:03:58Z,42.805,6.029,13.3091,4.60097,2470.637,2022-7-27T07:05:45Z
2022-07-27T05:07:01Z,42.805,6.029,13.3091,4.60087,2470.624,2022-7-27T07:08:48Z
2022-07-27T05:10:04Z,42.805,6.029,13.3089,4.60091,2470.637,2022-7-27T07:11:51Z
2022-07-27T05:13:07Z,42.805,6.029,13.3095,4.60087,2470.591,2022-7-27T07:14:55Z
2022-07-27T05:16:10Z,42.805,6.029,13.3084,4.60084,2470.637,2022-7-27T07:17:58Z
2022-07-27T05:19:13Z,42.805,6.029,13.3073,4.60074,2470.637,2022-7-27T07:21:01Z
2022-07-27T05:22:17Z,42.805,6.029,13.3080,4.60079,2470.637,2022-7-27T07:24:04Z
2022-07-27T05:25:20Z,42.805,6.029,13.3089,4.60096,2470.661,2022-7-27T07:27:07Z
2022-07-27T05:28:23Z,42.805,6.029,13.3078,4.60069,2470.646,2022-7-27T07:30:10Z
2022-07-27T05:31:26Z,42.805,6.029,13.3077,4.60095,2470.661,2022-7-27T07:33:13Z
2022-07-27T05:34:29Z,42.805,6.029,13.3094,4.60073,2470.661,2022-7-27T07:36:16Z
2022-07-27T05:37:32Z,42.805,6.029,13.3088,4.60089,2470.684,2022-7-27T07:39:20Z
2022-07-27T05:40:35Z,42.805,6.029,13.3084,4.60113,2470.637,2022-7-27T07:42:23Z
2022-07-27T05:43:38Z,42.805,6.029,13.3085,4.60067,2470.646,2022-7-27T07:45:26Z
2022-07-27T05:46:41Z,42.805,6.029,13.3090,4.60072,2470.646,2022-7-27T07:48:29Z
2022-07-27T05:49:45Z,42.805,6.029,13.3076,4.60084,2470.637,2022-7-27T07:51:32Z
2022-07-27T05:52:48Z,42.805,6.029,13.3085,4.60081,2470.661,2022-7-27T07:54:35Z
2022-07-27T05:55:51Z,42.805,6.029,13.3085,4.60080,2470.646,2022-7-27T07:57:38Z
2022-07-27T05:58:54Z,42.805,6.029,13.3091,4.60080,2470.661,2022-7-27T08:00:41Z
2022-07-27T06:01:57Z,42.805,6.029,13.3097,4.60093,2470.646,2022-7-27T08:03:45Z
2022-07-27T06:05:00Z,42.805,6.029,13.3084,4.60077,2470.661,2022-7-27T08:06:48Z
2022-07-27T06:08:03Z,42.805,6.029,13.3076,4.60086,2470.684,2022-7-27T08:09:51Z
2022-07-27T06:11:06Z,42.805,6.029,13.3083,4.60113,2470.624,2022-7-27T08:12:54Z
2022-07-27T06:14:10Z,42.805,6.029,13.3085,4.60078,2470.661,2022-7-27T08:15:57Z
2022-07-27T06:17:13Z,42.805,6.029,13.3098,4.60088,2470.637,2022-7-27T08:19:00Z
2022-07-27T06:20:16Z,42.805,6.029,13.3082,4.60078,2470.661,2022-7-27T08:22:03Z
2022-07-27T06:23:19Z,42.805,6.029,13.3056,4.60102,2470.684,2022-7-27T08:25:06Z
2022-07-27T06:26:22Z,42.805,6.029,13.3053,4.60105,2470.67,2022-7-27T08:28:09Z
2022-07-27T06:29:25Z,42.805,6.029,13.3070,4.60101,2470.684,2022-7-27T08:31:13Z
2022-07-27T06:32:28Z,42.805,6.029,13.3065,4.60073,2470.67,2022-7-27T08:34:16Z
2022-07-27T06:35:31Z,42.805,6.029,13.3053,4.60107,2470.684,2022-7-27T08:37:19Z
2022-07-27T06:38:35Z,42.805,6.029,13.3069,4.60078,2470.684,2022-7-27T08:40:22Z
2022-07-27T06:41:38Z,42.805,6.029,13.3074,4.60077,2470.661,2022-7-27T08:43:25Z
2022-07-27T06:44:41Z,42.805,6.029,13.3083,4.60104,2470.624,2022-7-27T08:46:28Z
2022-07-27T06:47:44Z,42.805,6.029,13.3083,4.60067,2470.646,2022-7-27T08:49:31Z
2022-07-27T06:50:47Z,42.805,6.029,13.3080,4.60093,2470.646,2022-7-27T08:52:34Z
2022-07-27T06:53:50Z,42.805,6.029,13.3077,4.60074,2470.661,2022-7-27T08:55:38Z
2022-07-27T06:56:53Z,42.805,6.029,13.3073,4.60086,2470.684,2022-7-27T08:58:41Z
2022-07-27T06:59:56Z,42.805,6.029,13.3084,4.60089,2470.614,2022-7-27T09:01:44Z
2022-07-27T07:02:59Z,42.805,6.029,13.3091,4.60078,2470.67,2022-7-27T09:04:47Z
2022-07-27T07:06:03Z,42.805,6.029,13.3080,4.60072,2470.637,2022-7-27T09:07:50Z
2022-07-27T07:09:06Z,42.805,6.029,13.3085,4.60073,2470.624,2022-7-27T09:10:53Z
2022-07-27T07:12:09Z,42.805,6.029,13.3081,4.60085,2470.637,2022-7-27T09:13:56Z
2022-07-27T07:15:12Z,42.805,6.029,13.3061,4.60091,2470.624,2022-7-27T09:16:59Z
2022-07-27T07:18:15Z,42.805,6.029,13.3085,4.60080,2470.646,2022-7-27T09:20:03Z
2022-07-27T07:21:18Z,42.805,6.029,13.3089,4.60084,2470.661,2022-7-27T09:23:06Z
2022-07-27T07:24:21Z,42.805,6.029,13.3084,4.60087,2470.684,2022-7-27T09:26:09Z
2022-07-27T07:27:24Z,42.805,6.029,13.3079,4.60084,2470.661,2022-7-27T09:29:12Z
2022-07-27T07:30:28Z,42.805,6.029,13.3069,4.60076,2470.637,2022-7-27T09:32:15Z
2022-07-27T07:33:31Z,42.805,6.029,13.3062,4.60081,2470.624,2022-7-27T09:35:18Z
2022-07-27T07:36:34Z,42.805,6.029,13.3080,4.60084,2470.637,2022-7-27T09:38:21Z
2022-07-27T07:39:37Z,42.805,6.029,13.3089,4.60078,2470.637,2022-7-27T09:41:24Z
2022-07-27T07:42:40Z,42.805,6.029,13.3093,4.60073,2470.624,2022-7-27T09:44:28Z
2022-07-27T07:45:43Z,42.805,6.029,13.3083,4.60079,2470.624,2022-7-27T09:47:31Z
2022-07-27T07:48:46Z,42.805,6.029,13.3086,4.60078,2470.637,2022-7-27T09:50:34Z
2022-07-27T07:51:49Z,42.805,6.029,13.3085,4.60076,2470.614,2022-7-27T09:53:37Z
2022-07-27T07:54:53Z,42.805,6.029,13.3085,4.60087,2470.684,2022-7-27T09:56:40Z
2022-07-27T07:57:56Z,42.805,6.029,13.3077,4.60094,2470.637,2022-7-27T09:59:43Z
2022-07-27T08:00:59Z,42.805,6.029,13.3069,4.60114,2470.637,2022-7-27T10:02:46Z
2022-07-27T08:04:02Z,42.805,6.029,13.3077,4.60091,2470.6,2022-7-27T10:05:49Z
2022-07-27T08:07:05Z,42.805,6.029,13.3069,4.60087,2470.661,2022-7-27T10:08:52Z
2022-07-27T08:10:08Z,42.805,6.029,13.3067,4.60085,2470.661,2022-7-27T10:11:56Z
2022-07-27T08:13:11Z,42.805,6.029,13.3083,4.60072,2470.637,2022-7-27T10:14:59Z
2022-07-27T08:16:14Z,42.805,6.029,13.3051,4.60079,2470.614,2022-7-27T10:18:02Z
2022-07-27T08:19:17Z,42.805,6.029,13.3073,4.60091,2470.646,2022-7-27T10:21:05Z
2022-07-27T08:22:21Z,42.805,6.029,13.3061,4.60094,2470.591,2022-7-27T10:24:08Z
2022-07-27T08:25:24Z,42.805,6.029,13.3061,4.60087,2470.614,2022-7-27T10:27:11Z
2022-07-27T08:28:27Z,42.805,6.029,13.3078,4.60086,2470.6,2022-7-27T10:30:14Z
2022-07-27T08:31:30Z,42.805,6.029,13.3079,4.60084,2470.637,2022-7-27T10:33:18Z
2022-07-27T08:34:33Z,42.805,6.029,13.3076,4.60100,2470.6,2022-7-27T10:36:21Z
2022-07-27T08:37:36Z,42.805,6.029,13.3090,4.60088,2470.591,2022-7-27T10:39:24Z
2022-07-27T08:40:39Z,42.805,6.029,13.3064,4.60087,2470.614,2022-7-27T10:42:27Z
2022-07-27T08:43:43Z,42.805,6.029,13.3063,4.60078,2470.637,2022-7-27T10:45:30Z
2022-07-27T08:46:46Z,42.805,6.029,13.3094,4.60089,2470.591,2022-7-27T10:48:33Z
2022-07-27T08:49:49Z,42.805,6.029,13.3105,4.60073,2470.661,2022-7-27T10:51:36Z
2022-07-27T08:52:52Z,42.805,6.029,13.3096,4.60083,2470.637,2022-7-27T10:54:39Z
2022-07-27T08:55:55Z,42.805,6.029,13.3063,4.60082,2470.577,2022-7-27T10:57:43Z
2022-07-27T08:58:58Z,42.805,6.029,13.3073,4.60084,2470.637,2022-7-27T11:00:46Z
2022-07-27T09:02:01Z,42.805,6.029,13.3096,4.60070,2470.614,2022-7-27T11:03:49Z
2022-07-27T09:05:04Z,42.805,6.029,13.3082,4.60081,2470.637,2022-7-27T11:06:52Z
2022-07-27T09:08:08Z,42.805,6.029,13.3101,4.60081,2470.651,2022-7-27T11:09:55Z
2022-07-27T09:11:11Z,42.805,6.029,13.3087,4.60079,2470.591,2022-7-27T11:12:58Z
2022-07-27T09:14:14Z,42.805,6.029,13.3080,4.60076,2470.6,2022-7-27T11:16:01Z
2022-07-27T09:17:17Z,42.805,6.029,13.3082,4.60089,2470.6,2022-7-27T11:19:04Z
2022-07-27T09:20:20Z,42.805,6.029,13.3096,4.60081,2470.577,2022-7-27T11:22:08Z
2022-07-27T09:23:23Z,42.805,6.029,13.3095,4.60086,2470.591,2022-7-27T11:25:11Z
2022-07-27T09:26:26Z,42.805,6.029,13.3067,4.60089,2470.577,2022-7-27T11:28:14Z
2022-07-27T09:29:29Z,42.805,6.029,13.3085,4.60073,2470.591,2022-7-27T11:31:17Z
2022-07-27T09:32:33Z,42.805,6.029,13.3074,4.60067,2470.591,2022-7-27T11:34:20Z
2022-07-27T09:35:36Z,42.805,6.029,13.3075,4.60066,2470.577,2022-7-27T11:37:23Z
2022-07-27T09:38:39Z,42.805,6.029,13.3069,4.60075,2470.591,2022-7-27T11:40:26Z
2022-07-27T09:41:42Z,42.805,6.029,13.3069,4.60084,2470.577,2022-7-27T11:43:29Z
2022-07-27T09:44:45Z,42.805,6.029,13.3061,4.60099,2470.553,2022-7-27T11:46:33Z
2022-07-27T09:47:48Z,42.805,6.029,13.3072,4.60078,2470.53,2022-7-27T11:49:36Z
2022-07-27T09:50:51Z,42.805,6.029,13.3067,4.60110,2470.577,2022-7-27T11:52:39Z
2022-07-27T09:53:54Z,42.805,6.029,13.3074,4.60096,2470.567,2022-7-27T11:55:42Z
2022-07-27T09:56:58Z,42.805,6.029,13.3084,4.60078,2470.591,2022-7-27T11:58:45Z
2022-07-27T10:00:01Z,42.805,6.029,13.3065,4.60079,2470.53,2022-7-27T12:01:48Z
2022-07-27T10:03:04Z,42.805,6.029,13.3063,4.60077,2470.577,2022-7-27T12:04:51Z
2022-07-27T10:06:07Z,42.805,6.029,13.3076,4.60074,2470.544,2022-7-27T12:07:54Z
2022-07-27T10:09:10Z,42.805,6.029,13.3077,4.60092,2470.567,2022-7-27T12:10:58Z
2022-07-27T10:12:13Z,42.805,6.029,13.3075,4.60076,2470.577,2022-7-27T12:14:01Z
2022-07-27T10:15:16Z,42.805,6.029,13.3074,4.60074,2470.544,2022-7-27T12:17:04Z
2022-07-27T10:18:19Z,42.805,6.029,13.3078,4.60099,2470.53,2022-7-27T12:20:07Z
2022-07-27T10:21:23Z,42.805,6.029,13.3097,4.60074,2470.567,2022-7-27T12:23:10Z
2022-07-27T10:24:26Z,42.805,6.029,13.3106,4.60075,2470.544,2022-7-27T12:26:13Z
2022-07-27T10:27:29Z,42.805,6.029,13.3093,4.60081,2470.553,2022-7-27T12:29:16Z
2022-07-27T10:30:32Z,42.805,6.029,13.3087,4.60072,2470.53,2022-7-27T12:32:19Z
2022-07-27T10:33:35Z,42.805,6.029,13.3085,4.60070,2470.52,2022-7-27T12:35:23Z
2022-07-27T10:36:38Z,42.805,6.029,13.3082,4.60089,2470.52,2022-7-27T12:38:26Z
2022-07-27T10:39:41Z,42.805,6.029,13.3077,4.60070,2470.544,2022-7-27T12:41:29Z
2022-07-27T10:42:44Z,42.805,6.029,13.3096,4.60081,2470.567,2022-7-27T12:44:32Z
2022-07-27T10:45:48Z,42.805,6.029,13.3076,4.60082,2470.52,2022-7-27T12:47:35Z
2022-07-27T10:48:51Z,42.805,6.029,13.3087,4.60080,2470.544,2022-7-27T12:50:38Z
2022-07-27T10:51:54Z,42.805,6.029,13.3084,4.60069,2470.544,2022-7-27T12:53:41Z
2022-07-27T10:54:57Z,42.805,6.029,13.3073,4.60087,2470.544,2022-7-27T12:56:44Z
2022-07-27T10:58:00Z,42.805,6.029,13.3070,4.60077,2470.53,2022-7-27T12:59:48Z
2022-07-27T11:01:03Z,42.805,6.029,13.3077,4.60077,2470.544,2022-7-27T13:02:51Z
2022-07-27T11:04:06Z,42.805,6.029,13.3055,4.60094,2470.53,2022-7-27T13:05:54Z
2022-07-27T11:07:09Z,42.805,6.029,13.3067,4.60093,2470.507,2022-7-27T13:08:57Z
2022-07-27T11:10:13Z,42.805,6.029,13.3059,4.60129,2470.507,2022-7-27T13:12:00Z
2022-07-27T11:13:16Z,42.805,6.029,13.3065,4.60105,2470.544,2022-7-27T13:15:03Z
2022-07-27T11:16:19Z,42.805,6.029,13.3094,4.60092,2470.507,2022-7-27T13:18:06Z
2022-07-27T11:19:22Z,42.805,6.029,13.3106,4.60081,2470.544,2022-7-27T13:21:09Z
2022-07-27T11:22:25Z,42.805,6.029,13.3089,4.60088,2470.52,2022-7-27T13:24:13Z
2022-07-27T11:25:28Z,42.805,6.029,13.3083,4.60082,2470.52,2022-7-27T13:27:16Z
2022-07-27T11:28:31Z,42.805,6.029,13.3040,4.60089,2470.497,2022-7-27T13:30:19Z
2022-07-27T11:31:34Z,42.805,6.029,13.3017,4.60132,2470.483,2022-7-27T13:33:22Z
2022-07-27T11:34:38Z,42.805,6.029,13.3015,4.60129,2470.507,2022-7-27T13:36:25Z
2022-07-27T11:37:41Z,42.805,6.029,13.3011,4.60162,2470.544,2022-7-27T13:39:28Z
2022-07-27T11:40:44Z,42.805,6.029,13.3036,4.60151,2470.52,2022-7-27T13:42:31Z
2022-07-27T11:43:47Z,42.805,6.029,13.3061,4.60105,2470.52,2022-7-27T13:45:34Z
2022-07-27T11:46:50Z,42.805,6.029,13.3062,4.60132,2470.507,2022-7-27T13:48:38Z
2022-07-27T11:49:53Z,42.805,6.029,13.3069,4.60115,2470.52,2022-7-27T13:51:41Z
2022-07-27T11:52:56Z,42.805,6.029,13.3066,4.60140,2470.483,2022-7-27T13:54:44Z
2022-07-27T11:55:59Z,42.805,6.029,13.3073,4.60104,2470.53,2022-7-27T13:57:47Z
2022-07-27T11:59:03Z,42.805,6.029,13.3093,4.60114,2470.52,2022-7-27T14:00:50Z
2022-07-27T12:02:06Z,42.805,6.029,13.3105,4.60123,2470.52,2022-7-27T14:03:53Z
2022-07-27T12:05:09Z,42.805,6.029,13.3088,4.60087,2470.53,2022-7-27T14:06:56Z
2022-07-27T12:08:12Z,42.805,6.029,13.3096,4.60099,2470.544,2022-7-27T14:10:00Z
2022-07-27T12:11:15Z,42.805,6.029,13.3067,4.60081,2470.52,2022-7-27T14:13:03Z
2022-07-27T12:14:18Z,42.805,6.029,13.3030,4.60106,2470.497,2022-7-27T14:16:06Z
2022-07-27T12:17:21Z,42.805,6.029,13.3054,4.60111,2470.53,2022-7-27T14:19:09Z
2022-07-27T12:20:24Z,42.805,6.029,13.3061,4.60148,2470.507,2022-7-27T14:22:12Z
2022-07-27T12:23:28Z,42.805,6.029,13.3077,4.60124,2470.497,2022-7-27T14:25:15Z
2022-07-27T12:26:31Z,42.805,6.029,13.3072,4.60115,2470.483,2022-7-27T14:28:18Z
2022-07-27T12:29:34Z,42.805,6.029,13.3076,4.60114,2470.52,2022-7-27T14:31:21Z
2022-07-27T12:32:37Z,42.805,6.029,13.3070,4.60128,2470.52,2022-7-27T14:34:25Z
2022-07-27T12:35:40Z,42.805,6.029,13.3089,4.60152,2470.483,2022-7-27T14:37:28Z
2022-07-27T12:38:43Z,42.805,6.029,13.3085,4.60102,2470.507,2022-7-27T14:40:31Z
2022-07-27T12:41:46Z,42.805,6.029,13.3073,4.60104,2470.52,2022-7-27T14:43:34Z
2022-07-27T12:44:50Z,42.805,6.029,13.3073,4.60099,2470.544,2022-7-27T14:46:37Z
2022-07-27T12:47:53Z,42.805,6.029,13.3081,4.60074,2470.53,2022-7-27T14:49:40Z
2022-07-27T12:50:56Z,42.805,6.029,13.3087,4.60087,2470.483,2022-7-27T14:52:43Z
2022-07-27T12:53:59Z,42.805,6.029,13.3061,4.60084,2470.544,2022-7-27T14:55:46Z
2022-07-27T12:57:02Z,42.805,6.029,13.3082,4.60104,2470.483,2022-7-27T14:58:50Z
2022-07-27T13:00:05Z,42.805,6.029,13.3085,4.60079,2470.544,2022-7-27T15:01:53Z
2022-07-27T13:03:08Z,42.805,6.029,13.3095,4.60078,2470.544,2022-7-27T15:04:56Z
2022-07-27T13:06:11Z,42.805,6.029,13.3093,4.60077,2470.544,2022-7-27T15:07:59Z
2022-07-27T13:09:15Z,42.805,6.029,13.3084,4.60087,2470.544,2022-7-27T15:11:02Z
2022-07-27T13:12:18Z,42.805,6.029,13.3061,4.60108,2470.507,2022-7-27T15:14:05Z
2022-07-27T13:15:21Z,42.805,6.029,13.3059,4.60139,2470.52,2022-7-27T15:17:08Z
2022-07-27T13:18:24Z,42.805,6.029,13.3066,4.60149,2470.544,2022-7-27T15:20:11Z
2022-07-27T13:21:27Z,42.805,6.029,13.3074,4.60098,2470.558,2022-7-27T15:23:15Z
2022-07-27T13:24:30Z,42.805,6.029,13.3092,4.60101,2470.507,2022-7-27T15:26:18Z
2022-07-27T13:27:33Z,42.805,6.029,13.3093,4.60093,2470.52,2022-7-27T15:29:21Z
2022-07-27T13:30:36Z,42.805,6.029,13.3082,4.60095,2470.52,2022-7-27T15:32:24Z
2022-07-27T13:33:40Z,42.805,6.029,13.3086,4.60115,2470.52,2022-7-27T15:35:27Z
2022-07-27T13:36:43Z,42.805,6.029,13.3087,4.60114,2470.497,2022-7-27T15:38:30Z
2022-07-27T13:39:46Z,42.805,6.029,13.3091,4.60117,2470.507,2022-7-27T15:41:33Z
2022-07-27T13:42:49Z,42.805,6.029,13.3105,4.60099,2470.497,2022-7-27T15:44:36Z
2022-07-27T13:45:52Z,42.805,6.029,13.3094,4.60085,2470.483,2022-7-27T15:47:40Z
2022-07-27T13:48:55Z,42.805,6.029,13.3101,4.60100,2470.53,2022-7-27T15:50:43Z
2022-07-27T13:51:58Z,42.805,6.029,13.3092,4.60099,2470.52,2022-7-27T15:53:46Z
2022-07-27T13:55:01Z,42.805,6.029,13.3087,4.60099,2470.544,2022-7-27T15:56:49Z
2022-07-27T13:58:05Z,42.805,6.029,13.3084,4.60103,2470.544,2022-7-27T15:59:52Z
2022-07-27T14:01:08Z,42.805,6.029,13.3089,4.60119,2470.544,2022-7-27T16:02:55Z
2022-07-27T14:04:11Z,42.805,6.029,13.3091,4.60107,2470.52,2022-7-27T16:05:58Z
2022-07-27T14:07:14Z,42.805,6.029,13.3098,4.60125,2470.52,2022-7-27T16:09:01Z
2022-07-27T14:10:17Z,42.805,6.029,13.3103,4.60117,2470.52,2022-7-27T16:12:05Z
2022-07-27T14:13:20Z,42.805,6.029,13.3093,4.60107,2470.544,2022-7-27T16:15:08Z
2022-07-27T14:16:23Z,42.805,6.029,13.3090,4.60106,2470.52,2022-7-27T16:18:11Z
2022-07-27T14:19:26Z,42.805,6.029,13.3096,4.60097,2470.53,2022-7-27T16:21:14Z
2022-07-27T14:22:30Z,42.805,6.029,13.3094,4.60102,2470.567,2022-7-27T16:24:17Z
2022-07-27T14:25:33Z,42.805,6.029,13.3091,4.60084,2470.507,2022-7-27T16:27:20Z
2022-07-27T14:28:36Z,42.805,6.029,13.3090,4.60079,2470.544,2022-7-27T16:30:23Z
2022-07-27T14:31:39Z,42.805,6.029,13.3093,4.60099,2470.53,2022-7-27T16:33:26Z
2022-07-27T14:34:42Z,42.805,6.029,13.3086,4.60107,2470.567,2022-7-27T16:36:30Z
2022-07-27T14:37:45Z,42.805,6.029,13.3085,4.60134,2470.544,2022-7-27T16:39:33Z
2022-07-27T14:40:48Z,42.805,6.029,13.3093,4.60113,2470.614,2022-7-27T16:42:36Z
2022-07-27T14:43:52Z,42.805,6.029,13.3093,4.60109,2470.53,2022-7-27T16:45:39Z
2022-07-27T14:46:55Z,42.805,6.029,13.3102,4.60095,2470.553,2022-7-27T16:48:42Z
2022-07-27T14:49:58Z,42.805,6.029,13.3098,4.60087,2470.567,2022-7-27T16:51:45Z
2022-07-27T14:53:01Z,42.805,6.029,13.3098,4.60087,2470.567,2022-7-27T16:54:48Z
2022-07-27T14:56:04Z,42.805,6.029,13.3104,4.60117,2470.544,2022-7-27T16:57:52Z
2022-07-27T14:59:07Z,42.805,6.029,13.3098,4.60102,2470.577,2022-7-27T17:00:55Z
2022-07-27T15:02:10Z,42.805,6.029,13.3097,4.60099,2470.544,2022-7-27T17:03:58Z
2022-07-27T15:05:13Z,42.805,6.029,13.3098,4.60101,2470.553,2022-7-27T17:07:01Z
2022-07-27T15:08:17Z,42.805,6.029,13.3093,4.60099,2470.591,2022-7-27T17:10:04Z
2022-07-27T15:11:20Z,42.805,6.029,13.3084,4.60111,2470.567,2022-7-27T17:13:07Z
2022-07-27T15:14:23Z,42.805,6.029,13.3088,4.60112,2470.553,2022-7-27T17:16:10Z